This demonstration page uses our WeatherBlox Daily Observations layout. Learn more.

Left ArrowRight Arrow

38.20091, -84.87328

Hourly Observations for November 30, 2021

Temp ( °F °C ) Dew Point ( °F °C ) Humidity (%) Winds ( mph kmh ) Pressure ( in mb ) Visibility ( mi km ) Precip ( " mm )
12:53 am 00:53 Clear 40 4.4 18 -7.8 41 41 SW 10 17 29.98 1015 10 16 N/A
1:53 am 01:53 Clear 41 5 19 -7.2 41 41 SW 13 20 29.97 1015 10 16 N/A
2:53 am 02:53 Clear 42 5.6 21 -6.1 43 43 SW 15 24 29.96 1014 10 16 N/A
3:53 am 03:53 Clear 41 5 22 -5.6 47 47 SW 13 20 29.96 1015 10 16 N/A
4:53 am 04:53 Clear 40 4.4 24 -4.4 53 53 SSW 9 15 29.96 1015 10 16 N/A
5:53 am 05:53 Clear 41 5 26 -3.3 55 55 SW 12 19 29.98 1015 10 16 N/A
6:53 am 06:53 Clear 40 4.4 26 -3.3 58 58 SW 12 19 30.00 1016 10 16 N/A
7:53 am 07:53 Sunny 40 4.4 27 -2.8 60 60 SW 12 19 30.02 1017 10 16 N/A
8:53 am 08:53 Sunny 43 6.1 29 -1.7 58 58 SW 10 17 30.04 1017 10 16 N/A
9:53 am 09:53 Sunny 47 8.3 32 undefined 56 56 WSW 14 22 30.06 1018 10 16 N/A
10:53 am 10:53 Sunny 50 10 34 1.1 54 54 W 9 15 30.07 1018 10 16 N/A
11:53 am 11:53 Sunny 53 11.7 35 1.7 51 51 W 7 11 30.09 1019 10 16 N/A
12:53 pm 12:53 Sunny 55 12.8 36 2.2 49 49 W 7 11 30.08 1019 10 16 N/A
1:53 pm 13:53 Sunny 56 13.3 36 2.2 47 47 WSW 9 15 30.07 1018 10 16 N/A
2:53 pm 14:53 Sunny 57 13.9 36 2.2 45 45 WSW 10 17 30.06 1018 10 16 N/A
3:53 pm 15:53 Sunny 56 13.3 36 2.2 47 47 WSW 6 9 30.08 1019 10 16 N/A
4:53 pm 16:53 Sunny 54 12.2 36 2.2 51 51 W 3 6 30.09 1019 10 16 N/A
5:53 pm 17:53 Clear 45 7.2 35 1.7 68 68 W 3 6 30.11 1020 10 16 N/A
6:53 pm 18:53 Clear 42 5.6 35 1.7 76 76 N N/A 30.13 1020 10 16 N/A
7:53 pm 19:53 Clear 38 3.3 33 0.6 83 83 N N/A 30.14 1021 10 16 N/A
8:53 pm 20:53 Clear 36 2.2 33 0.6 89 89 N N/A 30.14 1021 10 16 N/A
9:53 pm 21:53 Clear 36 2.2 32 undefined 86 86 N N/A 30.14 1021 10 16 N/A
10:53 pm 22:53 Clear 33 0.6 30 -1.1 89 89 N N/A 30.14 1021 10 16 N/A
11:53 pm 23:53 Clear 31 -0.6 30 -1.1 96 96 N N/A 30.14 1021 10 16 N/A

Powered by AerisWeather